COSMOS 482 DESCENT CRAFT

导读

COSMOS 482 DESCENT CRAFT是苏联(CIS前身)于1972年3月31日发射的金星探测器着陆舱,原计划执行金星着陆探测任务。因火箭末级发动机提前关机,探测器未能脱离地球轨道,任务失败后被重新命名为宇宙482号。 任务失败后,探测器解体,该着陆舱约495公斤,一直滞留地球轨道流浪半个多世纪。受太阳活动影响,轨道不断衰减,预计2025年5月坠入地球大气层,因其设计耐受极端环境,部分残骸可能抵达地表。

Basic Information
目录编号:
6073
目录名称:
COSMOS 482 DESCENT CRAFT
国际标识:
1972-023E
轨道中心:
EARTH
卫星名称:
COSMOS 482 DESCENT CRAFT
卫星全名:
--
卫星状态:
已陨落 最后检测时间 2025-05-10
发射日期:
1972-03-31 UTC
国别 :
俄罗斯(独联体) (CIS)
星等 :
--
Orbit Information
数据来源 国际轨道数据
星历时间: 2025-05-10T08:35:56+0800
轨道信息已过期430天
半长轴: 6521.021km
偏心率: 0.003539
轨道倾角: 51.946°
近地点辐角 103.655°
升交点赤经 241.903°
平近点角 63.643°
近地点: 119.808km
远地点: 165.964km
周期: 87.344分钟
每日圈数: 16.486535
Detailed Information
使用方式:
暂无